Flag for Brazil Weather past 2 weeks in Manaus, Amazonas, Brazil

Now
88 °F

Scattered clouds.


Feels Like: 96 °F
Forecast: 74 / 90 °F
Wind: 6 mph from South

Location: Manaus Aeroporto

Current Time: Aug 23, 2014 at 4:15:54 PM

Latest Report: Aug 23, 2014 at 3:00 PM


Visibility: N/A

Pressure: 29.80 "Hg

Humidity: 62%

Dew point: 73 °F

Location of ManausLocation

Historic Weather in Manaus — Graph

°F

Manaus temperature yesterday

Maximum temperature yesterday: 91 °F (at 1:00 PM)
Minimum temperature yesterday: 75 °F (at 4:00 AM)
Average temperature yesterday: 82 °F

Past Weeks' High & Low Weather Summary

 TemperatureHumidityPressure
High93 °F (Aug 20, 2:00 PM)94% (Aug 9, 2:00 AM)30.04 "Hg (Aug 9, 2:00 AM)
Low72 °F (Aug 16, 10:00 AM)34% (Aug 20, 1:00 PM)29.80 "Hg (Aug 14, 4:00 PM)
Average81 °F75%29.91 "Hg
* Reported Aug 8 3:00 PM — Aug 23 3:00 PM, Manaus, Weather by CustomWeather, © 2014

Note: Actual official high and low records may vary slightly from our data, if they occured in-between our weather recording intervals... More about our weather records

Advertising

Manaus weather history for previous 24 hours

 ConditionsComfort  
Time TempWeatherWind HumidityBarometerVisibility
3:00 PM
Aug 23
88 °FScattered clouds.6 mph62%29.80 "HgN/A
2:00 PM91 °FScattered clouds.6 mph56%29.83 "HgN/A
1:00 PM90 °FScattered clouds.7 mph59%29.86 "HgN/A
12:00 PM90 °FScattered clouds.7 mph59%29.89 "HgN/A
11:00 AM88 °FPassing clouds.7 mph62%29.92 "HgN/A
10:00 AM86 °FPassing clouds.6 mph66%29.92 "HgN/A
9:00 AM84 °FPassing clouds.3 mph70%29.92 "HgN/A
8:00 AM81 °FSunny.2 mph79%29.92 "Hg10 mi
7:00 AM79 °FSunny.No wind84%29.89 "Hg10 mi
6:00 AM75 °FClear.3 mph89%29.86 "Hg10 mi
5:00 AM75 °FClear.2 mph89%29.86 "Hg10 mi
4:00 AM73 °FClear.No wind94%29.86 "Hg10 mi
3:00 AM75 °FClear.2 mph89%29.86 "Hg10 mi
2:00 AM75 °FClear.2 mph89%29.86 "Hg10 mi
1:00 AM77 °FClear.2 mph83%29.89 "Hg10 mi
12:00 AM77 °FClear.2 mph83%29.89 "Hg10 mi
11:00 PM
Aug 22
79 °FClear.3 mph79%29.92 "Hg10 mi
10:00 PM79 °FThundershowers. Passing clouds.3 mph79%29.89 "HgN/A
9:00 PM81 °FClear.6 mph79%29.89 "Hg10 mi
8:00 PM82 °FClear.2 mph74%29.86 "Hg10 mi
7:00 PM82 °FClear.3 mph74%29.83 "Hg10 mi
6:00 PM82 °FScattered clouds.5 mph66%29.83 "HgN/A
5:00 PM84 °FScattered clouds.5 mph58%29.80 "HgN/A
4:00 PM86 °FPassing clouds.7 mph62%29.80 "HgN/A
Weather by CustomWeather, © 2014

See weather overviewHow to use our weather pages